[[{"header":{"parameterUnit":"m.s-1","parameterCategory":1,"la1":30.2991,"la2":30.254,"lo1":-89.0895,"lo2":-89.0444,"dy":0.0017,"dx":0.0017,"nx":28,"ny":28,"refTime":"2025-01-02T03:00:00:Z","depth":0,"parameterNumber":2,"parameterNumberName":"U-component_of_WINDS"},"data":[0,0,0,0,0,0,0,0,0,0,0,0,0,0,0,0,0,0,0,0,0,0,0,0,0,0,0,0,0,0,0,0,0,0,0,0,0,0,0,0,0,0,0,0,0,0,0,0,0,0,0,0,0,0,0,0,0,0,-2.4501,-2.4501,0,-2.4567,-2.4568,-2.4569,-2.4453,-2.4449,-2.4445,-2.4441,-2.4513,-2.4519,-2.4524,0,0,0,0,0,0,0,0,0,0,0,0,0,-2.4276,-2.4281,-2.4501,-2.4502,-2.4502,-2.4567,-2.4568,-2.4569,-2.4454,-2.4449,-2.4444,-2.4439,-2.4512,-2.4518,-2.4525,0,0,0,0,0,0,0,0,0,0,0,0,0,-2.4362,-2.4283,-2.4501,-2.4452,-2.4449,-2.4567,-2.4568,-2.4569,-2.4455,-2.4449,-2.4443,-2.4437,-2.4509,-2.4517,-2.4526,-2.4695,0,0,-2.4551,-2.4555,0,0,0,0,0,0,0,0,-2.4357,-2.437,-2.4459,-2.4456,-2.4452,-2.4496,-2.4515,-2.4612,-2.4456,-2.4453,-2.4441,-2.4434,-2.4512,-2.452,-2.4546,-2.4698,-2.4702,-2.4552,-2.4557,-2.4561,-2.4563,0,0,0,0,0,0,0,-2.4351,-2.4366,-2.4527,-2.446,-2.4456,-2.4428,-2.4434,-2.4533,-2.4515,-2.4452,-2.4444,-2.4453,-2.451,-2.4538,-2.4547,-2.4703,-2.4552,-2.4559,-2.4564,-2.4568,-2.4998,-2.5004,0,0,0,0,0,0,-2.4351,-2.4362,-2.4525,-2.4529,-2.4389,-2.4437,-2.4443,-2.4488,-2.4513,-2.4512,-2.4458,-2.4448,-2.4527,-2.4537,-2.4549,-2.4749,-2.4561,-2.4568,-2.4573,-2.4991,-2.4999,-2.5006,0,0,0,0,0,0,-2.4346,-2.4366,-2.4522,-2.4443,-2.4461,-2.4447,-2.4498,-2.4492,-2.452,-2.4518,-2.4514,-2.4491,-2.4522,-2.4537,-2.4659,-2.475,-2.4572,-2.458,-2.4984,-2.4994,-2.5002,-2.5152,0,0,0,0,0,0,-2.434,-2.4365,-2.4429,-2.4446,-2.4466,-2.4632,-2.4503,-2.4498,-2.4535,-2.4521,-2.4547,-2.4546,-2.4519,-2.4647,-2.4668,-2.4759,-2.4586,-2.4976,-2.4988,-2.4999,-2.5139,-2.5166,-2.5189,0,0,0,0,0,-2.4333,-2.447,-2.4433,-2.4453,-2.4545,-2.4637,-2.4649,-2.4614,-2.4542,-2.4607,-2.4605,-2.4545,-2.4736,-2.4661,-2.4683,-2.4778,-2.497,-2.4985,-2.4999,-2.5128,-2.5161,-2.5188,0,0,0,0,0,0,-2.4466,-2.4471,-2.4431,-2.4577,-2.4607,-2.4617,-2.4698,-2.4649,-2.4702,-2.4688,-2.4643,-2.465,-2.4782,-2.4791,-2.4707,-2.4943,-2.4841,-2.4861,-2.4932,-2.4963,-2.4987,-2.4984,-2.4593,0,0,0,0,0,-2.4512,-2.4585,-2.4586,-2.4715,-2.4732,-2.4713,-2.4751,-2.4721,-2.4752,-2.4765,-2.4772,-2.4805,-2.4872,-2.4917,-2.4979,-2.5139,-2.5143,-2.5215,-2.5239,-2.526,-2.5278,-2.5364,-2.5396,-2.5053,-2.5053,-2.5053,0,0,-2.4609,-2.462,-2.467,-2.4742,-2.4762,-2.484,-2.4724,-2.4812,-2.487,-2.4778,-2.4894,-2.4901,-2.4934,-2.5076,-2.5139,-2.5088,-2.5373,-2.5278,-2.5294,-2.5302,-2.5382,-2.5415,-2.5443,-2.5063,-2.5061,-2.506,0,0,-2.4825,-2.4841,-2.495,-2.4972,-2.5003,-2.4989,-2.5016,-2.5033,-2.5033,-2.5148,-2.5082,-2.5149,-2.5266,-2.5293,-2.5322,-2.5547,-2.5494,-2.5568,-2.5698,-2.5783,-2.581,-2.5833,-2.5915,-2.5945,-2.5586,-2.5586,-2.5586,0,-2.4942,-2.5056,-2.5013,-2.5105,-2.5139,-2.5057,-2.5169,-2.5192,-2.5243,-2.5269,-2.521,-2.5355,-2.5372,-2.5519,-2.5574,-2.5599,-2.5629,-2.5567,-2.5809,-2.5832,-2.5854,-2.5932,-2.5962,-2.5595,-2.5594,-2.5593,-2.5592,0,-2.5199,-2.5279,-2.5364,-2.5413,-2.5456,-2.5558,-2.5531,-2.5579,-2.5545,-2.5537,-2.5656,-2.5673,-2.5737,-2.5769,-2.5737,-2.5912,-2.588,-2.5816,-2.5713,-2.5896,-2.5969,-2.5998,-2.5608,-2.5605,-2.5602,-2.56,0,0,-2.5505,-2.5527,-2.556,-2.5581,-2.5609,-2.567,-2.5767,-2.5828,-2.5872,-2.5909,-2.5991,-2.609,-2.6031,-2.6064,-2.6034,-2.6107,-2.6286,-2.6034,-2.6034,-2.6082,-2.6482,-2.6532,-2.6567,-2.6249,-2.6255,-2.6259,-2.648,0,-2.5722,-2.5889,-2.5852,-2.6017,-2.6091,-2.6013,-2.6098,-2.6125,-2.6119,-2.6182,-2.6175,-2.6248,-2.6163,-2.6183,-2.6252,-2.625,-2.6366,-2.6233,-2.6327,-2.6331,-2.6324,-2.6604,-2.6657,-2.6865,-2.6507,-2.6512,-2.6515,0,-2.5998,-2.6044,-2.6216,-2.6231,-2.6261,-2.6338,-2.6391,-2.645,-2.6479,-2.647,-2.6506,-2.6461,-2.6558,-2.6452,-2.6586,-2.6497,-2.6532,-2.6537,-2.6544,-2.6554,-2.6437,-2.6624,-2.693,-2.6962,-2.6559,-2.6556,-2.6553,0,-2.6206,-2.6311,-2.6427,-2.6448,-2.6468,-2.6524,-2.6535,-2.6558,-2.6597,-2.6643,-2.6668,-2.6725,-2.6757,-2.6803,-2.6775,-2.67,-2.6914,-2.6805,-2.6911,-2.6912,-2.6962,-2.696,-2.7281,-2.6981,-2.6981,-2.698,-2.698,0,-2.6454,-2.6563,-2.6521,-2.6594,-2.6713,-2.6669,-2.6789,-2.6791,-2.6812,-2.6884,-2.6819,-2.6888,-2.6845,-2.6911,-2.689,-2.7005,-2.7019,-2.7016,-2.7009,-2.7023,-2.7024,-2.7048,-2.7034,-2.6988,-2.6987,-2.6985,-2.6984,0,-2.6708,-2.6685,-2.6807,-2.6815,-2.682,-2.6908,-2.6915,-2.6983,-2.6971,-2.7063,-2.7082,-2.7065,-2.7139,-2.7114,-2.7194,-2.7179,-2.7326,-2.73,-2.7317,-2.7311,-2.7419,-2.741,-2.7769,-2.7814,-2.7483,-2.7486,-2.7489,0,-2.6869,-2.6951,-2.6968,-2.701,-2.7026,-2.7096,-2.7134,-2.7094,-2.7137,-2.7175,-2.7238,-2.7306,-2.7358,-2.748,-2.7476,-2.7536,-2.7512,-2.7633,-2.7521,-2.7532,-2.7517,-2.7513,-2.7522,-2.7657,-2.7661,-2.7664,-2.7666,0,-2.7159,-2.7142,-2.72,-2.7255,-2.7302,-2.7343,-2.7379,-2.7418,-2.7379,-2.7431,-2.7505,-2.7545,-2.7625,-2.7694,-2.7748,-2.776,-2.7709,-2.7701,-2.7729,-2.7746,-2.7753,-2.7753,-2.7381,-2.7694,-2.7691,-2.7689,-2.7688,-2.7687,-2.7373,-2.7442,-2.7464,-2.7531,-2.7552,-2.7587,-2.7651,-2.7646,-2.7707,-2.7769,-2.774,-2.7826,-2.7852,-2.7919,-2.7938,-2.8005,-2.7959,-2.7999,-2.801,-2.8021,-2.8036,-2.774,-2.8015,-2.8014,-2.8013,-2.8012,-2.8012,0,-2.766,-2.767,-2.7732,-2.7782,-2.7835,-2.7778,-2.7814,-2.7862,-2.7938,-2.7966,-2.8018,-2.8103,-2.8169,-2.8169,-2.823,-2.8284,-2.8261,-2.8302,-2.8299,-2.8303,-2.8073,-2.8044,-2.8319,-2.8319,-2.8319,-2.8318,-2.8318,-2.8318,-2.7817,-2.7931,-2.7917,-2.8042,-2.805,-2.8134,-2.8159,-2.819,-2.8212,-2.831,-2.8364,-2.8362,-2.8379,-2.844,-2.8498,-2.8496,-2.8523,-2.8573,-2.8563,-2.8349,-2.8319,-2.829,-2.8262,-2.8578,-2.8579,-2.8787,-2.8789,-2.879]},{"header":{"parameterUnit":"m.s-1","parameterCategory":1,"la1":30.2991,"la2":30.254,"lo1":-89.0895,"lo2":-89.0444,"dy":0.0017,"dx":0.0017,"nx":28,"ny":28,"refTime":"2025-01-02T03:00:00:Z","depth":0,"parameterNumber":3,"parameterNumberName":"V-component_of_WINDS"},"data":[0,0,0,0,0,0,0,0,0,0,0,0,0,0,0,0,0,0,0,0,0,0,0,0,0,0,0,0,0,0,0,0,0,0,0,0,0,0,0,0,0,0,0,0,0,0,0,0,0,0,0,0,0,0,0,0,0,0,-4.0727,-4.0728,0,-4.0797,-4.0798,-4.0799,-4.0741,-4.0738,-4.0736,-4.0734,-4.0802,-4.0806,-4.081,0,0,0,0,0,0,0,0,0,0,0,0,0,-4.0539,-4.0543,-4.0727,-4.0728,-4.0729,-4.0797,-4.0798,-4.0799,-4.0741,-4.0738,-4.0735,-4.0733,-4.0801,-4.0806,-4.0811,0,0,0,0,0,0,0,0,0,0,0,0,0,-4.0616,-4.0544,-4.0727,-4.0708,-4.0707,-4.0797,-4.0798,-4.0799,-4.0742,-4.0738,-4.0735,-4.0731,-4.0799,-4.0805,-4.0811,-4.0922,0,0,-4.083,-4.0833,0,0,0,0,0,0,0,0,-4.0611,-4.0623,-4.071,-4.071,-4.0709,-4.0757,-4.0757,-4.084,-4.0743,-4.0729,-4.0734,-4.0729,-4.079,-4.0797,-4.0818,-4.0925,-4.0928,-4.0831,-4.0834,-4.0837,-4.0839,0,0,0,0,0,0,0,-4.0606,-4.0619,-4.0754,-4.0711,-4.0711,-4.0695,-4.0702,-4.0772,-4.0779,-4.073,-4.0726,-4.0735,-4.0789,-4.0812,-4.0819,-4.0929,-4.0831,-4.0836,-4.084,-4.0842,-4.1128,-4.1132,0,0,0,0,0,0,-4.0603,-4.0615,-4.0752,-4.0757,-4.065,-4.0701,-4.0709,-4.0745,-4.0778,-4.0779,-4.0738,-4.0732,-4.0803,-4.0812,-4.0821,-4.0951,-4.0837,-4.0843,-4.0846,-4.1124,-4.1129,-4.1133,0,0,0,0,0,0,-4.0599,-4.0616,-4.0749,-4.0685,-4.0701,-4.0708,-4.0749,-4.0748,-4.0771,-4.0784,-4.0784,-4.0761,-4.0801,-4.0812,-4.0897,-4.0953,-4.0845,-4.0851,-4.112,-4.1126,-4.1131,-4.1213,0,0,0,0,0,0,-4.0594,-4.0615,-4.0658,-4.0686,-4.0704,-4.0826,-4.0753,-4.0752,-4.0782,-4.0775,-4.0805,-4.0807,-4.0799,-4.0888,-4.0903,-4.0959,-4.0856,-4.1115,-4.1122,-4.1129,-4.1205,-4.1221,-4.1234,0,0,0,0,0,-4.0588,-4.0678,-4.0661,-4.0678,-4.0759,-4.0829,-4.0839,-4.0829,-4.0787,-4.083,-4.0837,-4.0806,-4.0944,-4.0897,-4.0914,-4.0972,-4.1111,-4.112,-4.1129,-4.1199,-4.1218,-4.1234,0,0,0,0,0,0,-4.0656,-4.0682,-4.0663,-4.0765,-4.0796,-4.0819,-4.0873,-4.085,-4.0892,-4.0883,-4.0867,-4.0875,-4.0964,-4.0976,-4.0924,-4.108,-4.1021,-4.1033,-4.1068,-4.1087,-4.1101,-4.1096,-4.0861,0,0,0,0,0,-4.0683,-4.074,-4.0758,-4.0847,-4.0863,-4.0866,-4.0896,-4.0885,-4.0916,-4.0928,-4.0942,-4.0972,-4.1021,-4.1055,-4.1101,-4.1207,-4.1212,-4.1255,-4.127,-4.1281,-4.1292,-4.1347,-4.1366,-4.1162,-4.1162,-4.1162,0,0,-4.0739,-4.076,-4.0797,-4.0861,-4.0883,-4.0941,-4.0877,-4.094,-4.0982,-4.0937,-4.1018,-4.1029,-4.1061,-4.1156,-4.1199,-4.1169,-4.135,-4.1293,-4.1302,-4.1307,-4.1358,-4.1377,-4.1395,-4.1168,-4.1167,-4.1166,0,0,-4.0871,-4.0894,-4.0969,-4.0993,-4.1027,-4.1028,-4.1046,-4.1073,-4.1079,-4.116,-4.1127,-4.1176,-4.1263,-4.1286,-4.1309,-4.1448,-4.142,-4.1464,-4.1539,-4.1593,-4.1609,-4.1623,-4.1671,-4.1689,-4.1475,-4.1475,-4.1475,0,-4.0937,-4.1023,-4.1011,-4.1076,-4.1105,-4.1067,-4.1142,-4.1165,-4.1213,-4.1233,-4.12,-4.1307,-4.1325,-4.1425,-4.1458,-4.1479,-4.1498,-4.146,-4.1608,-4.1622,-4.1635,-4.1681,-4.1699,-4.148,-4.1479,-4.1479,-4.1478,0,-4.1101,-4.1161,-4.1217,-4.1265,-4.13,-4.137,-4.1367,-4.1403,-4.1389,-4.1393,-4.1474,-4.1495,-4.1545,-4.1568,-4.1554,-4.1665,-4.1645,-4.1611,-4.1551,-4.166,-4.1702,-4.172,-4.1487,-4.1485,-4.1484,-4.1483,0,0,-4.1278,-4.1317,-4.1338,-4.1359,-4.1393,-4.1439,-4.1506,-4.1556,-4.1586,-4.162,-4.1675,-4.1749,-4.1716,-4.1743,-4.1731,-4.1779,-4.1885,-4.1737,-4.1738,-4.1763,-4.2006,-4.2032,-4.2052,-4.1867,-4.187,-4.1873,-4.2003,0,-4.1411,-4.153,-4.152,-4.1631,-4.1686,-4.165,-4.1708,-4.1735,-4.174,-4.1785,-4.179,-4.1842,-4.1796,-4.1811,-4.1856,-4.1863,-4.1934,-4.1853,-4.1916,-4.1919,-4.1909,-4.2075,-4.2102,-4.2224,-4.202,-4.2023,-4.2025,0,-4.1582,-4.1622,-4.1739,-4.1764,-4.1786,-4.1839,-4.1883,-4.1927,-4.1956,-4.1956,-4.1985,-4.1965,-4.2031,-4.197,-4.2059,-4.2005,-4.203,-4.2037,-4.2041,-4.2046,-4.1978,-4.2083,-4.2263,-4.2281,-4.2051,-4.2049,-4.2047,0,-4.1698,-4.1781,-4.1862,-4.188,-4.1912,-4.195,-4.1964,-4.1989,-4.2019,-4.2056,-4.2075,-4.2119,-4.2143,-4.2177,-4.2169,-4.2126,-4.226,-4.2199,-4.2261,-4.2261,-4.229,-4.2289,-4.2476,-4.2308,-4.2308,-4.2307,-4.2307,0,-4.1847,-4.1919,-4.1914,-4.1964,-4.2044,-4.2031,-4.2109,-4.2119,-4.2142,-4.2191,-4.2162,-4.2209,-4.2196,-4.2241,-4.2235,-4.231,-4.2321,-4.2321,-4.2319,-4.2324,-4.2324,-4.234,-4.2331,-4.2312,-4.2311,-4.231,-4.2309,0,-4.199,-4.199,-4.2075,-4.2098,-4.2105,-4.2162,-4.2181,-4.2227,-4.2229,-4.2291,-4.2305,-4.2308,-4.236,-4.2356,-4.2414,-4.241,-4.2501,-4.2489,-4.2492,-4.2489,-4.2551,-4.2545,-4.2754,-4.278,-4.2597,-4.2598,-4.26,0,-4.2085,-4.214,-4.2168,-4.22,-4.2217,-4.2268,-4.2298,-4.2287,-4.2319,-4.2355,-4.2396,-4.2445,-4.2484,-4.2569,-4.2575,-4.2619,-4.2607,-4.2677,-4.2613,-4.2616,-4.2606,-4.2603,-4.2608,-4.269,-4.2692,-4.2693,-4.2695,0,-4.2252,-4.2249,-4.2294,-4.2339,-4.2376,-4.241,-4.2441,-4.2468,-4.2459,-4.2497,-4.255,-4.258,-4.264,-4.2688,-4.273,-4.2743,-4.2717,-4.2715,-4.2731,-4.2737,-4.2736,-4.2736,-4.2525,-4.271,-4.2709,-4.2707,-4.2707,-4.2706,-4.2374,-4.242,-4.2447,-4.2498,-4.252,-4.255,-4.2593,-4.2601,-4.2645,-4.2693,-4.2683,-4.2743,-4.2767,-4.2821,-4.2838,-4.2883,-4.2857,-4.2881,-4.2887,-4.2893,-4.29,-4.2729,-4.289,-4.289,-4.289,-4.2889,-4.2889,0,-4.2539,-4.2554,-4.2601,-4.2645,-4.2685,-4.2658,-4.269,-4.2724,-4.2777,-4.2803,-4.2842,-4.2902,-4.2949,-4.2959,-4.3003,-4.3037,-4.3026,-4.3049,-4.3046,-4.3049,-4.2921,-4.2902,-4.3057,-4.3057,-4.3057,-4.3057,-4.3057,-4.3057,-4.2629,-4.2707,-4.2706,-4.2793,-4.2808,-4.2866,-4.2887,-4.2913,-4.2934,-4.3002,-4.3042,-4.3048,-4.3067,-4.3112,-4.3153,-4.3154,-4.3171,-4.3199,-4.3195,-4.3075,-4.3058,-4.3042,-4.3024,-4.3203,-4.3203,-4.332,-4.3321,-4.3322]}]]